Regional Weather Roundup
Issued by NWS

Home | Current Version | Previous Version | Text Only | Print | Product List | Glossary Off
Versions: 1 2 3 4 5 6 7 8 9 10 11 12 13 14 15 16 17 18 19 20 21 22 23 24 25 26 27 28 29 30 31 32 33 34 35 36 37 38 39 40 41 42 43 44 45 46 47 48 49 50

000
ASUS43 KDTX 290310
RWRMI
MICHIGAN HOURLY REGIONAL WEATHER ROUNDUP
NATIONAL WEATHER SERVICE DETROIT/PONTIAC MI
1100 PM EDT SUN AUG 28 2016

NOTE: "FAIR" INDICATES FEW OR NO CLOUDS BELOW 12,000 FEET WITH NO
SIGNIFICANT WEATHER AND/OR OBSTRUCTION TO VISIBILITY.

MIZ047>049-052>055-059>063-066>070-074>076-081>083-290400-
SOUTHEAST LOWER MICHIGAN

CITY           SKY/WX    TMP DP  RH WIND       PRES   REMARKS
ADRIAN         CLEAR     72  72 100 W3        30.23R
ALMA           FOG       65  65 100 S6        30.23R VSB 1/4
ANN ARBOR      PTCLDY    74  68  81 CALM      30.22R
BAD AXE        PTCLDY    64  64 100 CALM      30.24R FOG
CARO           CLOUDY    63  63  98 CALM      30.22R
DETROIT CITY   PTCLDY    74  72  93 E10       30.22R
DETROIT        PTCLDY    76  69  79 NE5       30.22R
FLINT          CLEAR     71  65  81 SE3       30.23R
GROSSE ILE     CLEAR     73  72  98 CALM      30.20R FOG
HILLSDALE      CLEAR     68  67  95 CALM      30.23S FOG
HOWELL         CLEAR     70  67  88 CALM      30.23S

CITY           SKY/WX    TMP DP  RH WIND       PRES   REMARKS
JACKSON        PTCLDY    72  69  90 CALM      30.24R
LAMBERTVILLE   FOG       72  70  94 CALM      30.22R VSB 3/4
LANSING        PTCLDY    70  65  84 CALM      30.23R
LAPEER         FAIR      65  64  96 CALM      30.23S
MASON          PTCLDY    68  64  88 CALM      30.23S
MONROE         CLEAR     69  69 100 CALM      30.20R
MT. CLEMENS    PTCLDY    72  68  88 NE10      30.21R
PONTIAC        PTCLDY    72  67  84 NE7       30.22R
PORT HURON     CLEAR     68  68 100 CALM      30.23R
TRI CITIES     CLEAR     69  67  93 CALM      30.23R
MIDLAND        FAIR      66  65  99 CALM      30.22R
TROY           CLEAR     76  68  77 NE6       30.24R
SAGINAW HB     CLOUDY    68  64  88 CALM      30.22R
$$
MIZ043>046-050>051-056>058-064>065-071>073-077>080-290400-
SOUTHWEST LOWER MICHIGAN

CITY           SKY/WX    TMP DP  RH WIND       PRES   REMARKS
BATTLE CREEK   PTCLDY    71  70  96 CALM      30.23R
BENTON HARBOR  PTCLDY    69  66  90 NE3       30.21R
BIG RAPIDS     CLEAR     67  65  94 CALM      30.24R
COLDWATER      FOG       70  70 100 CALM      30.23R VSB 1/2
FREMONT        FAIR      66  65  94 N6        30.23R
HOLLAND        PTCLDY    66  63  90 CALM      30.23R
GRAND RAPIDS   PTCLDY    73  65  75 CALM      30.23R
IONIA          FAIR      69  66  92 CALM      30.22R
KALAMAZOO      PTCLDY    72  68  87 N3        30.23R
LUDINGTON      PTCLDY    60  60 100 CALM      30.22S FOG
MARSHALL       CLEAR     72  70  94 CALM      30.23R
MOUNT PLEASANT CLEAR     67  66  97 CALM      30.22R
MUSKEGON       PTCLDY    69  64  84 CALM      30.22R
SOUTH HAVEN    PTCLDY    70  67  88 NE3       30.22S
$$
MIZ016>042-290400-
NORTHERN LOWER MICHIGAN

CITY           SKY/WX    TMP DP  RH WIND       PRES   REMARKS
ALPENA         CLEAR     66  60  81 NW6       30.24R
BEAVER ISLAND  FOG       60  60 100 CALM      30.25S VSB 1/2
BELLAIRE       CLEAR     59  58  96 CALM      30.25R
CADILLAC       CLEAR     64  61  91 CALM      30.25R
CHARLEVOIX     CLEAR     62  61  97 CALM      30.27S
FRANKFORT      CLEAR     60  58  91 CALM      30.23S
GAYLORD        CLEAR     63  57  81 CALM      30.27R
GRAYLING       CLEAR     60  60  97 CALM      30.26S
HARBOR SPRINGS CLEAR     63  62  96 N3        30.24S
HOUGHTON LAKE  CLEAR     62  59  90 E3        30.26R
MANISTEE       CLEAR     61  60  97 CALM      30.23R
OSCODA         CLEAR     62  62  99 CALM      30.23R
PELLSTON       CLEAR     59  58  96 CALM      30.25R FOG
ROGERS CITY    CLEAR     67  62  83 NW5       30.25S
TRAVERSE CITY  CLEAR     66  63  90 CALM      30.23R
$$
MIZ007>008-015-290400-
EASTERN UPPER MICHIGAN

CITY           SKY/WX    TMP DP  RH WIND       PRES   REMARKS
KINROSS        CLEAR     59  58  96 W3        30.26R
MACKINAC ISLAN CLEAR     62  62 100 N6        30.25S
NEWBERRY       CLEAR     57  56  97 CALM      30.26S
S. S. MARIE    CLEAR     61  58  90 NW5       30.24R
$$
MIZ004>006-011>014-085-290400-
CENTRAL UPPER MICHIGAN

CITY           SKY/WX    TMP DP  RH WIND       PRES   REMARKS
MANISTIQUE     FOG       59  57  92 N3        30.24S VSB 1
ESCANABA       CLEAR     65  63  93 CALM      30.22S
MENOMINEE      CLEAR    N/A N/A N/A SW5       30.22F
SAWYER-GWINN   CLEAR     61  56  83 CALM      30.25F
$$
MIZ001>003-009>011-084-290400-
WESTERN UPPER MICHIGAN

CITY           SKY/WX    TMP DP  RH WIND       PRES   REMARKS
IRON MOUNTAIN  CLEAR     65  60  84 SW3       30.22R
HOUGHTON       CLEAR     62  60  93 E6        30.23R
IRONWOOD       CLEAR     64  61  90 SE6       30.21R
$$

ABBREVIATIONS USED IN REMARKS
   TC - TEMPERATURE IN CELSIUS
  WCI - WIND CHILL INDEX
   HX - HEAT INDEX
  VSB - VISIBILITY





USA.gov is the U.S. government's official web portal to all federal, state and local government web resources and services.